Location: Arpaise
(41.0333°N, 14.7333°E)
Time: 08:03:07
(UTC+00:00)

SL-16 R/B - Pass Details

Date: 05 July 2020
Orbit: 839 x 850 km, 71.0° (Epoch: 05 August)

Event Time Altitude Azimuth Distance (km) Brightness Sun altitude
Exits shadow 23:00:52 46° 254° (WSW) 1,130 2.7 -26.3°
Maximum altitude 23:02:08 55° 297° (WNW) 1,009 2.6 -26.3°
Drops below altitude 10° 23:07:43 10° 16° (NNE) 2,478 5.6 -26.3°
Sets 23:10:14 0° 20° (NNE) 3,419 6.5 -26.3°
